{"data":{"norad_id":60368,"epoch":"2026-05-24T20:19:36.408288Z","epoch_age_seconds":91706,"freshness":"FRESH","line1":"1 60368U 24138P   26144.84694917 -.00001116  00000+0 -25574-4 0  9993","line2":"2 60368  53.1604 316.1445 0001206  98.7986 261.3151 15.30189698102286","mean_motion":15.30189698,"eccentricity":0.0001206,"inclination_deg":53.1604,"raan_deg":316.1445,"arg_perigee_deg":98.7986,"mean_anomaly_deg":261.3151,"bstar":-2.5574e-5,"rev_number":10228,"period_min":94.105979270552,"perigee_km":474.41931153771,"apogee_km":476.07234747619,"semimajor_km":6853.382829507,"source":"CELESTRAK","updated_at":"2026-05-25T13:38:19.240777Z"}}